Wind_Speed
25 30 29 32 33 27 33 35 36 35 27 31 24 21 19 19 18 20 20 21 21 20 21 23 25 24 28 25 19 30 31 31 31 31 25 21 20 16 18 16 14 10 7
29 23 21 23 26 24 32 34 35 31 31 31 22 20 16 13 16 17 19 20 21 21 21 22 25 25 30 27 23 27 34 26 30 34 30 21 20 20 19 19 17 16 11
28 27 25 23 27 23 34 35 34 30 32 24 21 21 19 17 15 15 14 17 18 22 21 24 23 27 30 31 28 38 36 34 29 33 32 18 10 26 21 22 22 19 17
33 29 26 29 29 30 29 33 32 31 31 26 24 24 20 22 19 16 15 16 17 17 17 21 21 25 25 30 32 40 36 33 31 33 28 24 21 23 12 22 23 20 20
23 22 26 27 30 32 31 33 34 31 32 28 26 24 18 15 12 11 15 16 17 18 17 16 21 25 26 27 31 42 42 39 33 33 25 20 19 19 19 19 26 25 22
17 19 24 26 29 33 33 35 35 30 28 30 25 18 12 16 14 17 19 20 20 18 17 16 20 25 32 30 27 41 40 39 34 33 30 28 24 15 19 10 22 27 32
29 25 19 30 29 38 37 36 33 30 29 27 25 19 19 19 14 17 18 18 17 18 15 14 13 16 35 35 29 43 40 39 34 32 30 26 25 21 14 13 15 22 19
27 27 31 21 16 37 36 36 32 30 30 26 26 20 19 17 17 16 14 16 13 15 12 10 10 22 24 25 30 32 44 38 31 29 30 28 24 23 21 17 15 12 9
25 27 28 21 7 32 34 32 31 31 28 28 24 21 19 14 15 14 13 12 13 13 10 8 12 16 19 27 30 28 40 36 31 29 28 30 30 28 23 22 20 12 12
20 22 25 28 7 20 25 26 28 33 27 24 22 19 21 17 17 16 13 11 9 10 12 13 15 16 19 24 31 35 35 33 29 28 28 29 26 23 25 28 26 20 17
16 18 20 21 17 5 17 23 19 28 30 21 23 22 18 16 14 14 14 14 10 9 9 12 14 17 17 20 24 26 29 31 32 28 29 27 28 29 29 30 31 33 31
14 15 15 17 13 12 8 11 15 23 31 16 21 19 18 17 14 13 12 13 12 10 9 9 11 16 18 22 26 27 29 27 28 27 33 35 35 35 36 37 36 36 34
15 14 14 16 13 11 8 14 16 21 25 18 16 17 15 16 12 12 12 13 10 9 8 10 7 10 14 15 15 20 29 26 29 31 31 32 33 33 34 37 37 36 37
16 14 14 15 13 11 12 11 17 21 25 23 24 22 20 18 17 17 14 13 10 9 9 12 12 15 13 15 14 12 14 20 21 23 25 25 22 23 21 21 25 30 36
17 17 15 14 13 12 12 15 18 24 21 23 22 22 21 20 19 18 17 16 15 13 13 14 14 15 15 14 13 13 14 13 10 15 16 19 21 20 21 21 23 23 26
15 16 15 12 14 13 12 12 14 17 22 22 21 20 19 17 16 17 17 16 15 14 14 14 14 15 16 14 14 14 16 15 17 19 18 19 17 20 23 22 25 27 30
14 19 16 14 13 13 11 12 14 16 20 23 21 20 20 20 21 21 19 19 18 15 13 13 14 13 13 14 14 15 15 17 18 18 19 18 21 22 24 26 26 27 28
14 16 15 17 15 13 12 11 12 15 20 22 21 19 19 18 17 18 19 18 18 19 17 15 14 12 12 15 16 17 18 20 21 22 22 22 24 25 27 26 26 26 28
13 14 15 15 18 19 15 14 17 17 18 19 19 18 18 17 15 16 17 17 15 15 12 11 9 7 7 7 9 8 9 10 11 10 10 11 11 13 16 18 19 17 17
10 14 15 15 15 16 16 17 18 17 20 20 21 19 16 18 20 18 16 16 14 15 11 6 7 7 6 4 5 6 7 7 6 4 5 10 12 12 12 12 10 9 6
12 14 16 18 16 14 14 17 19 19 14 17 19 21 16 17 14 17 15 15 15 13 14 14 16 14 12 11 8 9 8 8 7 6 8 11 10 8 7 6 5 5 5
15 16 19 19 16 15 14 17 19 14 16 17 16 15 18 19 21 16 18 17 17 17 18 18 21 23 22 22 20 17 15 15 14 15 15 15 14 14 14 13 13 9 8
14 15 18 18 19 17 17 17 15 15 16 18 19 18 16 17 16 16 19 19 18 18 18 17 19 19 20 21 20 19 17 16 16 16 14 13 11 10 10 12 11 9 9
15 14 16 17 20 18 16 16 13 13 13 14 14 13 13 15 16 16 17 17 18 16 17 16 16 15 14 14 14 15 13 12 12 11 9 7 7 6 8 7 7 7 8
15 14 14 13 14 15 17 15 10 10 15 18 21 22 21 20 18 19 19 18 17 14 14 14 14 14 15 15 13 12 11 10 9 7 6 6 6 6 7 7 7 6 6
12 13 14 14 14 13 13 14 15 12 11 15 17 16 16 17 19 19 19 19 16 14 14 13 12 12 12 11 10 8 7 6 4 3 5 6 6 7 6 6 6 5 5
Wind_Direction
259 238 233 226 222 210 183 190 205 218 195 207 208 217 224 221 220 214 219 223 223 220 226 224 220 219 215 224 214 190 174 184 176 169 170 169 172 168 182 193 205 216 189
263 260 233 221 217 190 188 193 208 213 194 210 201 214 221 224 226 220 218 224 226 226 218 221 226 229 220 210 197 189 178 183 180 175 167 162 171 176 186 192 197 209 196
239 240 238 234 191 186 186 192 207 199 198 199 195 201 197 201 196 213 216 219 222 219 223 219 225 218 233 215 208 195 180 180 187 187 175 156 185 188 199 189 190 202 206
240 228 232 231 192 189 188 189 200 196 198 190 202 209 209 198 215 214 213 212 209 209 219 218 233 220 229 226 210 195 181 183 186 185 191 191 193 183 189 213 213 201 219
239 234 230 225 198 189 192 191 201 197 199 193 206 205 208 202 201 197 214 212 208 209 216 216 217 229 220 219 214 200 189 185 187 189 184 195 195 210 198 195 209 209 213
227 240 239 241 199 187 186 187 199 195 198 196 209 205 187 192 184 196 205 201 212 209 209 219 235 238 230 221 210 195 187 190 191 193 194 200 209 204 203 193 213 215 219
3 355 330 227 223 183 183 186 192 193 197 199 194 197 189 193 186 203 206 207 208 205 213 234 229 238 205 207 209 193 192 196 197 198 206 203 215 220 210 218 205 218 222
353 345 339 318 235 173 177 182 186 191 194 194 194 191 202 200 188 202 217 213 220 221 218 219 198 218 206 210 217 215 197 197 197 205 208 210 206 214 218 234 233 239 215
349 345 341 350 189 173 176 184 185 192 190 190 192 187 192 185 180 191 198 204 209 207 205 211 182 190 220 224 205 203 196 198 204 213 209 214 220 224 225 233 248 246 263
346 352 9 23 15 153 165 171 190 197 184 190 191 186 184 179 189 195 190 187 191 189 200 205 208 207 199 201 200 194 194 202 209 213 216 218 226 231 232 240 241 236 260
357 358 13 43 63 113 180 192 183 178 183 180 187 180 179 178 182 191 195 206 205 207 207 209 210 205 202 203 199 199 205 211 221 223 227 227 237 239 244 252 249 245 244
12 13 21 45 73 90 139 185 190 182 183 172 191 185 171 174 180 191 195 203 194 213 204 194 202 214 209 208 212 215 219 222 221 229 226 230 240 250 250 249 255 257 260
32 21 31 43 58 78 127 169 170 201 189 183 180 168 176 179 176 177 176 186 188 194 187 188 198 205 202 205 206 224 223 227 231 233 236 239 247 252 254 253 253 252 253
45 34 32 39 51 70 99 151 176 174 178 180 173 172 168 170 179 174 181 178 173 162 167 177 177 170 182 200 211 217 231 243 238 243 241 250 253 256 263 260 262 262 260
45 42 31 31 41 66 81 114 131 161 171 180 175 171 169 169 171 173 176 179 171 165 163 181 188 191 193 201 207 209 220 234 244 247 248 244 241 248 252 249 253 262 262
51 48 41 36 40 48 69 96 114 141 152 171 176 181 190 189 191 185 170 171 176 181 185 177 187 194 200 200 199 198 208 216 220 228 204 203 224 236 249 255 257 259 259
54 58 48 49 49 48 61 77 108 122 129 137 145 158 166 172 177 183 188 187 187 186 184 182 188 199 204 209 209 211 222 230 235 245 253 245 243 243 252 257 257 261 264
65 70 63 56 54 54 64 81 95 108 120 123 125 131 143 143 146 160 168 159 168 175 178 184 189 197 210 217 219 222 228 235 241 251 255 257 258 259 260 264 269 273 275
71 69 74 77 69 57 55 72 86 92 98 99 111 110 122 119 122 125 131 133 133 137 134 126 138 147 164 204 222 229 224 230 233 242 253 263 270 274 278 280 280 278 280
77 76 73 73 72 86 82 74 71 78 84 90 95 87 95 100 93 96 99 108 112 109 118 89 92 108 123 153 211 226 218 216 219 238 272 280 289 285 276 276 276 272 284
75 79 77 66 60 60 73 82 89 84 83 82 87 94 92 93 97 96 97 95 95 97 98 99 90 90 91 98 112 125 131 128 133 119 101 88 77 73 75 87 88 89 101
66 71 76 70 63 58 60 65 68 67 89 97 98 107 108 106 105 106 101 94 98 101 103 99 91 85 86 86 88 92 96 104 109 102 92 84 74 71 74 72 74 81 82
71 73 76 70 64 60 64 64 67 72 76 86 93 106 113 107 107 115 110 100 100 100 102 103 98 92 90 88 86 88 92 92 90 86 81 72 63 56 57 57 55 53 53
75 75 76 77 74 67 64 66 69 76 90 103 107 115 114 115 112 105 102 110 111 108 108 102 100 103 105 102 103 102 99 95 94 98 98 88 70 55 54 52 43 38 35
91 95 92 94 101 104 98 86 66 77 75 75 77 82 85 89 102 107 104 102 101 107 110 103 108 107 103 95 89 83 81 79 73 70 72 63 52 51 41 37 37 36 35
93 90 89 87 86 109 108 104 104 93 91 96 89 73 71 79 85 87 91 90 82 82 87 96 100 97 93 95 91 84 79 72 54 38 43 49 53 49 44 35 22 27 25
Height
1393 1394 1395 1397 1401 1405 1407 1410 1416 1422 1430 1431 1435 1437 1439 1443 1447 1450 1453 1457 1460 1463 1466 1469 1472 1476 1480 1484 1488 1490 1495 1503 1509 1512 1520 1524 1529 1532 1536 1538 1538 1540 1541
1387 1387 1389 1391 1395 1399 1403 1407 1413 1419 1426 1427 1432 1434 1437 1440 1444 1445 1448 1452 1456 1459 1463 1465 1468 1473 1476 1480 1485 1489 1494 1499 1507 1509 1516 1522 1529 1530 1534 1537 1538 1539 1540
1384 1385 1386 1387 1390 1395 1400 1405 1410 1417 1422 1425 1428 1431 1436 1439 1442 1442 1445 1448 1451 1455 1459 1461 1464 1468 1471 1474 1480 1485 1490 1497 1504 1507 1510 1518 1523 1527 1531 1533 1535 1539 1540
1377 1378 1381 1384 1385 1391 1398 1403 1409 1415 1418 1422 1424 1426 1429 1434 1436 1439 1442 1445 1449 1452 1454 1457 1459 1463 1467 1470 1475 1481 1488 1494 1500 1506 1510 1514 1517 1522 1528 1531 1533 1535 1537
1369 1372 1377 1379 1381 1387 1393 1400 1405 1410 1414 1418 1420 1423 1426 1431 1433 1438 1441 1443 1446 1448 1450 1453 1456 1459 1461 1466 1471 1477 1482 1490 1496 1502 1507 1513 1517 1518 1520 1524 1527 1532 1533
1368 1371 1374 1375 1378 1381 1388 1395 1400 1405 1410 1414 1417 1421 1424 1428 1431 1434 1438 1440 1443 1445 1447 1450 1451 1452 1455 1460 1467 1473 1480 1487 1494 1500 1505 1510 1513 1516 1518 1520 1522 1524 1527
1368 1367 1370 1372 1372 1375 1381 1389 1396 1403 1407 1411 1417 1419 1423 1426 1429 1432 1434 1438 1440 1442 1444 1446 1446 1447 1450 1458 1465 1469 1477 1484 1491 1497 1503 1506 1510 1513 1516 1519 1520 1521 1524
1372 1372 1368 1363 1363 1369 1376 1384 1392 1401 1405 1410 1415 1417 1419 1423 1427 1430 1432 1435 1437 1439 1441 1442 1443 1446 1450 1456 1461 1466 1474 1481 1487 1494 1499 1504 1506 1510 1512 1515 1517 1520 1522
1380 1377 1370 1363 1363 1367 1374 1381 1389 1397 1403 1409 1413 1415 1418 1422 1425 1428 1430 1433 1435 1437 1440 1442 1444 1447 1450 1452 1458 1464 1471 1479 1485 1491 1496 1500 1503 1507 1510 1512 1513 1515 1517
1387 1382 1376 1368 1367 1369 1374 1382 1388 1393 1402 1407 1411 1414 1417 1420 1424 1427 1430 1432 1434 1436 1438 1441 1444 1448 1450 1453 1455 1462 1470 1476 1482 1487 1492 1496 1499 1503 1506 1510 1511 1513 1515
1391 1385 1381 1377 1374 1375 1378 1385 1387 1394 1401 1406 1408 1411 1415 1419 1422 1426 1429 1432 1433 1435 1437 1440 1443 1446 1450 1453 1458 1462 1469 1473 1479 1484 1488 1492 1495 1498 1501 1503 1506 1507 1509
1393 1389 1386 1383 1380 1381 1384 1389 1390 1396 1400 1404 1404 1410 1414 1416 1421 1425 1429 1431 1432 1434 1436 1438 1441 1444 1448 1451 1456 1460 1465 1469 1472 1477 1481 1484 1488 1491 1495 1497 1498 1500 1502
1393 1392 1389 1386 1386 1386 1387 1389 1391 1396 1400 1402 1405 1410 1414 1416 1420 1424 1427 1430 1432 1434 1436 1438 1440 1442 1446 1449 1453 1456 1461 1464 1469 1473 1477 1480 1483 1485 1486 1487 1490 1493 1495
1396 1395 1394 1393 1391 1390 1390 1391 1393 1395 1397 1399 1402 1407 1411 1415 1417 1421 1425 1428 1430 1433 1436 1437 1438 1440 1444 1447 1451 1455 1458 1461 1464 1468 1472 1476 1478 1480 1481 1482 1483 1486 1488
1402 1399 1399 1398 1396 1393 1393 1393 1394 1394 1398 1400 1403 1408 1411 1414 1417 1420 1422 1425 1428 1431 1432 1435 1438 1441 1443 1447 1450 1453 1456 1458 1462 1466 1468 1471 1472 1475 1475 1476 1478 1480 1481
1407 1404 1404 1402 1400 1400 1397 1396 1396 1397 1398 1400 1404 1408 1411 1414 1417 1419 1422 1424 1427 1430 1432 1434 1437 1439 1442 1445 1449 1452 1454 1457 1459 1462 1461 1463 1469 1472 1472 1470 1473 1475 1475
1413 1407 1409 1407 1405 1404 1403 1401 1400 1400 1398 1398 1403 1407 1409 1413 1416 1418 1421 1423 1425 1429 1431 1432 1435 1437 1440 1443 1446 1449 1451 1454 1455 1456 1458 1461 1464 1466 1467 1463 1466 1466 1466
1416 1413 1414 1412 1410 1410 1409 1408 1405 1403 1401 1401 1403 1406 1408 1411 1414 1416 1418 1420 1422 1423 1428 1431 1432 1434 1436 1440 1443 1445 1447 1449 1451 1453 1454 1456 1457 1458 1458 1457 1457 1457 1457
1420 1417 1415 1417 1415 1413 1416 1413 1410 1409 1409 1407 1407 1409 1409 1411 1415 1416 1417 1418 1421 1421 1425 1428 1430 1432 1434 1436 1439 1441 1443 1444 1446 1447 1449 1449 1450 1452 1452 1453 1453 1452 1452
1423 1420 1419 1420 1418 1415 1419 1418 1417 1416 1414 1413 1411 1413 1417 1412 1418 1419 1420 1419 1422 1423 1424 1429 1430 1431 1432 1434 1436 1439 1440 1442 1444 1446 1447 1447 1449 1449 1448 1448 1448 1448 1449
1426 1424 1422 1423 1424 1425 1419 1419 1418 1419 1421 1416 1415 1417 1424 1421 1419 1424 1428 1422 1423 1426 1427 1436 1435 1433 1434 1435 1435 1437 1440 1442 1443 1445 1447 1447 1448 1448 1447 1447 1447 1448 1450
1431 1429 1426 1428 1429 1429 1427 1425 1423 1429 1420 1421 1421 1422 1425 1426 1422 1424 1424 1427 1425 1429 1433 1435 1435 1437 1438 1439 1438 1439 1442 1443 1444 1445 1447 1449 1450 1450 1449 1448 1449 1450 1450
1435 1434 1432 1433 1434 1434 1432 1433 1433 1428 1428 1427 1427 1428 1432 1419 1428 1431 1428 1426 1430 1433 1436 1438 1439 1441 1442 1443 1443 1444 1446 1447 1447 1448 1450 1452 1452 1452 1451 1450 1451 1451 1452
1438 1438 1436 1437 1438 1438 1437 1436 1438 1438 1435 1432 1431 1435 1432 1428 1427 1430 1427 1430 1434 1437 1439 1440 1441 1443 1445 1446 1447 1446 1448 1450 1452 1452 1454 1454 1454 1454 1453 1452 1452 1451 1451
1441 1440 1439 1440 1440 1441 1441 1442 1443 1441 1438 1437 1435 1433 1433 1429 1432 1435 1435 1438 1440 1442 1443 1444 1447 1448 1448 1449 1450 1449 1449 1451 1454 1454 1454 1454 1454 1453 1453 1452 1451 1452 1451
1444 1444 1442 1443 1443 1443 1444 1444 1444 1443 1443 1441 1440 1439 1439 1442 1443 1443 1442 1442 1444 1446 1447 1449 1450 1450 1450 1450 1451 1452 1453 1452 1454 1454 1453 1453 1454 1453 1452 1452 1451 1451 1451